This is the latest recevied weather packets stored in our database for station/object NQ9F. If no packets are shown the sender has not sent any weather packets the latest 10 day(s).
| Time | Temp. | Humidity | Pressure | Rain* | Wind** | Luminosity | Snow |
|---|---|---|---|---|---|---|---|
| 1777736217 | 18.89° C | 61% | 1022.5 hPa | 0 mm | - | 662 W/m² | - |
| 1777735914 | 18.89° C | 59% | 1022.9 hPa | 0 mm | - | 640 W/m² | - |
| 1777735611 | 18.33° C | 64% | 1022.5 hPa | 0 mm | - | 626 W/m² | - |
| 1777735309 | 18.33° C | 67% | 1022.6 hPa | 0 mm | - | 610 W/m² | - |
| 1777735006 | 18.33° C | 69% | 1022.4 hPa | 0 mm | - | 587 W/m² | - |
| 1777734703 | 17.78° C | 69% | 1022.3 hPa | 0 mm | - | 565 W/m² | - |
| 1777734401 | 17.78° C | 68% | 1022.5 hPa | 0 mm | - | 544 W/m² | - |
| 1777734097 | 17.78° C | 74% | 1022.5 hPa | 0 mm | - | 526 W/m² | - |
| 1777733793 | 17.22° C | 72% | 1022.5 hPa | 0 mm | - | 502 W/m² | - |
| 1777733490 | 17.22° C | 76% | 1022.4 hPa | 0 mm | - | 478 W/m² | - |
| 1777733187 | 16.67° C | 78% | 1022.5 hPa | 0 mm | - | 452 W/m² | - |
| 1777732884 | 16.67° C | 78% | 1022.5 hPa | 0 mm | - | 432 W/m² | - |
| 1777732580 | 16.67° C | 80% | 1022.5 hPa | 0 mm | - | 408 W/m² | - |
| 1777732278 | 16.11° C | 78% | 1022.3 hPa | 0 mm | - | 384 W/m² | - |
| 1777731974 | 16.11° C | 80% | 1022.5 hPa | 0 mm | - | 361 W/m² | - |
| 1777731671 | 15.56° C | 79% | 1022.5 hPa | 0 mm | - | 344 W/m² | - |
| 1777731369 | 15.56° C | 80% | 1022.4 hPa | 0 mm | - | 315 W/m² | - |
| 1777731066 | 15° C | 80% | 1022.4 hPa | 0 mm | - | 304 W/m² | - |
| 1777730765 | 15° C | 82% | 1022.3 hPa | 0 mm | - | 286 W/m² | - |
| 1777730460 | 14.44° C | 82% | 1022.4 hPa | 0 mm | - | 272 W/m² | - |
| 1777730157 | 14.44° C | 83% | 1022.2 hPa | 0 mm | - | 256 W/m² | - |
| 1777729854 | 14.44° C | 86% | 1022.1 hPa | 0 mm | - | 224 W/m² | - |
| 1777729550 | 13.89° C | 86% | 1022.2 hPa | 0 mm | - | 201 W/m² | - |
| 1777729247 | 13.89° C | 87% | 1022 hPa | 0 mm | - | 190 W/m² | - |
| 1777728944 | 13.33° C | 88% | 1021.8 hPa | 0 mm | - | 170 W/m² | - |
* Rain latest hour (hover to see other rain measurements)
** Current wind speed in m/s (hover to see current wind gust speed)